This is the latest recevied weather packets stored in our database for station/object N0FDH. If no packets are shown the sender has not sent any weather packets the latest 10 day(s).
| Time | Temp. | Humidity | Pressure | Rain* | Wind** | Luminosity | Snow |
|---|---|---|---|---|---|---|---|
| 1777476050 | 6.67° C | 47% | 1017.6 hPa | 0 mm | - | 475 W/m² | - |
| 1777475746 | 7.22° C | 49% | 1017.6 hPa | 0 mm | - | 465 W/m² | - |
| 1777475443 | 7.22° C | 50% | 1017.7 hPa | 0 mm | - | 409 W/m² | - |
| 1777475143 | 6.67° C | 48% | 1017.5 hPa | 0 mm | - | 343 W/m² | - |
| 1777474840 | 6.67° C | 47% | 1017.7 hPa | 0 mm | - | 392 W/m² | - |
| 1777474535 | 6.67° C | 49% | 1017.6 hPa | 0 mm | - | 399 W/m² | - |
| 1777474233 | 6.67° C | 52% | 1017.5 hPa | 0 mm | - | 382 W/m² | - |
| 1777473930 | 6.67° C | 49% | 1017.8 hPa | 0 mm | - | 329 W/m² | - |
| 1777473628 | 6.67° C | 56% | 1017.7 hPa | 0 mm | - | 341 W/m² | - |
| 1777473324 | 6.11° C | 54% | 1017.6 hPa | 0 mm | - | 309 W/m² | - |
| 1777473020 | 6.11° C | 53% | 1017.7 hPa | 0 mm | - | 348 W/m² | - |
| 1777472716 | 6.11° C | 55% | 1017.7 hPa | 0 mm | - | 143 W/m² | - |
| 1777472413 | 6.11° C | 59% | 1017.5 hPa | 0 mm | - | 194 W/m² | - |
| 1777472111 | 5.56° C | 56% | 1017.7 hPa | 0 mm | - | 323 W/m² | - |
| 1777471805 | 5.56° C | 59% | 1017.9 hPa | 0 mm | - | 325 W/m² | - |
| 1777471502 | 5.56° C | 61% | 1017.9 hPa | 0 mm | - | 337 W/m² | - |
| 1777471199 | 5.56° C | 62% | 1018 hPa | 0 mm | - | 285 W/m² | - |
| 1777470896 | 5° C | 63% | 1018 hPa | 0 mm | - | 206 W/m² | - |
| 1777470593 | 5° C | 66% | 1018.2 hPa | 0 mm | - | 298 W/m² | - |
| 1777470289 | 5° C | 70% | 1017.9 hPa | 0 mm | - | 192 W/m² | - |
| 1777469985 | 4.44° C | 71% | 1018 hPa | 0 mm | - | 153 W/m² | - |
| 1777469681 | 4.44° C | 67% | 1018.1 hPa | 0 mm | - | 137 W/m² | - |
| 1777469377 | 4.44° C | 66% | 1018.1 hPa | 0 mm | - | 119 W/m² | - |
| 1777469072 | 3.89° C | 69% | 1018 hPa | 0 mm | - | 78 W/m² | - |
| 1777468767 | 3.89° C | 71% | 1018 hPa | 0 mm | - | 72 W/m² | - |
* Rain latest hour (hover to see other rain measurements)
** Current wind speed in m/s (hover to see current wind gust speed)